Weather History for KRDR - February, 2013

Change the Weather History Date:

Monday, February 11, 2013

  Actual Average Record
Temperature  
Mean Temperature 16 °F -  
Max Temperature 23 °F 21 °F 50 °F (2002)
Min Temperature 10 °F 2 °F -14 °F (2008)
Degree Days  
Heating Degree Days 48    
Moisture  
Dew Point 14 °F    
Average Humidity 81    
Maximum Humidity 93    
Minimum Humidity 65    
Precipitation  
Precipitation 0.00 in - - ()
Sea Level Pressure  
Sea Level Pressure 29.91 in    
Wind  
Wind Speed 20 mph (NNW)    
Max Wind Speed 29 mph    
Max Gust Speed 39 mph    
Visibility 8 miles    
Events Snow    
Averages and records for this station are not official NWS values.
T = Trace of Precipitation, MM = Missing Value Source: NWS Daily Summary

Daily Weather History Graph

Daily Weather History Graph

Search for Another Location

Airport or City:

Trip Planner

Search our weather history database for the weather conditions in past years. The results will help you decide how hot, cold, wet, or windy it might be!

Date:

Astronomy

Feb. 11, 2013 Rise Set
Actual Time 7:42 AM CST 5:46 PM CST
Civil Twilight 7:09 AM CST 6:18 PM CST
Nautical Twilight 6:33 AM CST 6:55 PM CST
Astronomical Twilight 5:57 AM CST 7:31 PM CST
Moon 7:56 AM CST (2/11) 7:58 PM CST (2/11)
Length of Visible Light 11h 08m
Length of Day
10h 04m
Waxing Crescent, 3% of the Moon is Illuminated
Feb 11
Waxing Crescent
Feb 17
First Quarter
Feb 25
Full
Mar 4
Last Quarter
Mar 11
New

Hourly Weather History & Observations

Time (CST) Temp. Windchill Dew Point Humidity Pressure Visibility Wind Dir Wind Speed Gust Speed Precip Events Conditions
12:11 AM 21.2 °F 3.3 °F 19.4 °F 93% 29.79 in 4.0 mi North 28.8 mph 38.0 mph N/A Snow Light Snow
12:35 AM 21.2 °F 4.9 °F 17.6 °F 86% 29.81 in 2.5 mi North 23.0 mph 35.7 mph N/A Snow Light Snow
12:55 AM 21.4 °F 3.8 °F 18.3 °F 88% 29.81 in 3.0 mi NNE 27.6 mph 39.1 mph 0.00 in Snow Light Snow
1:02 AM 21.2 °F 4.5 °F 17.6 °F 86% 29.81 in 4.0 mi North 24.2 mph 31.1 mph N/A Snow Light Snow
1:08 AM 21.2 °F 4.9 °F 17.6 °F 86% 29.82 in 6.0 mi North 23.0 mph 31.1 mph N/A Snow Light Snow
1:23 AM 21.2 °F 4.5 °F 17.6 °F 86% 29.82 in 5.0 mi North 24.2 mph 33.4 mph N/A Snow Light Snow
1:30 AM 21.2 °F 4.9 °F 17.6 °F 86% 29.82 in 2.5 mi North 23.0 mph 29.9 mph N/A Snow Light Snow
1:35 AM 21.2 °F 4.9 °F 17.6 °F 86% 29.82 in 2.0 mi North 23.0 mph 29.9 mph N/A Snow Light Snow
1:40 AM 21.2 °F 4.9 °F 17.6 °F 86% 29.83 in 3.0 mi North 23.0 mph 29.9 mph N/A Snow Light Snow
1:42 AM 21.2 °F 6.0 °F 17.6 °F 86% 29.83 in 3.0 mi North 19.6 mph 29.9 mph N/A Snow Light Snow
1:53 AM 21.2 °F 5.2 °F 17.6 °F 86% 29.83 in 3.0 mi North 21.9 mph 31.1 mph N/A Snow Light Snow
1:55 AM 21.4 °F 5.5 °F 18.1 °F 87% 29.83 in 3.0 mi North 21.9 mph 31.1 mph 0.00 in Snow Light Snow
2:00 AM 21.2 °F 3.5 °F 17.6 °F 86% 29.83 in 2.5 mi North 27.6 mph 33.4 mph N/A Snow Light Snow
2:01 AM 21.2 °F 3.9 °F 17.6 °F 86% 29.83 in 2.5 mi North 26.5 mph 33.4 mph N/A Snow Light Snow
2:07 AM 21.2 °F 6.0 °F 17.6 °F 86% 29.84 in 2.5 mi North 19.6 mph 33.4 mph N/A Snow Light Snow
2:09 AM 21.2 °F 4.9 °F 17.6 °F 86% 29.84 in 2.5 mi North 23.0 mph 33.4 mph N/A Snow Light Snow
2:15 AM 21.2 °F 5.6 °F 17.6 °F 86% 29.84 in 2.5 mi North 20.7 mph 28.8 mph N/A Snow Light Snow
2:16 AM 21.2 °F 5.2 °F 17.6 °F 86% 29.84 in 3.0 mi North 21.9 mph 28.8 mph N/A Snow Light Snow
2:17 AM 21.2 °F 6.0 °F 17.6 °F 86% 29.84 in 3.0 mi North 19.6 mph 28.8 mph N/A Snow Light Snow
2:25 AM 21.2 °F 4.9 °F 17.6 °F 86% 29.84 in 4.0 mi North 23.0 mph 28.8 mph N/A Snow Light Snow
2:29 AM 21.2 °F 4.2 °F 17.6 °F 86% 29.84 in 3.0 mi North 25.3 mph 33.4 mph N/A Snow Light Snow
2:32 AM 21.2 °F 4.9 °F 17.6 °F 86% 29.84 in 3.0 mi North 23.0 mph 33.4 mph N/A Snow Light Snow
2:36 AM 21.2 °F 6.0 °F 17.6 °F 86% 29.85 in 2.5 mi North 19.6 mph 33.4 mph N/A Snow Light Snow
2:42 AM 21.2 °F 4.9 °F 17.6 °F 86% 29.85 in 3.0 mi North 23.0 mph 29.9 mph N/A Snow Light Snow
2:44 AM 21.2 °F 5.2 °F 17.6 °F 86% 29.85 in 4.0 mi North 21.9 mph 29.9 mph N/A Snow Light Snow
2:55 AM 21.0 °F 4.3 °F 17.4 °F 86% 29.85 in 7.0 mi North 24.2 mph 29.9 mph 0.00 in Snow Light Snow
2:56 AM 21.2 °F 5.6 °F 17.6 °F 86% 29.86 in 7.0 mi North 20.7 mph 31.1 mph N/A Snow Light Snow
3:46 AM 19.4 °F 3.2 °F 15.8 °F 86% 29.86 in 10.0 mi North 20.7 mph 27.6 mph N/A Snow Light Snow
3:55 AM 19.8 °F 3.3 °F 15.6 °F 84% 29.86 in 10.0 mi North 21.9 mph 27.6 mph 0.00 in Snow Light Snow
4:34 AM 19.4 °F 3.2 °F 15.8 °F 86% 29.87 in 10.0 mi North 20.7 mph 26.5 mph N/A Snow Light Snow
4:36 AM 19.4 °F 3.2 °F 15.8 °F 86% 29.87 in 10.0 mi North 20.7 mph 26.5 mph N/A Snow Light Snow
4:42 AM 19.4 °F 3.6 °F 14.0 °F 80% 29.88 in 10.0 mi North 19.6 mph - N/A Snow Light Snow
4:55 AM 19.0 °F 2.4 °F 14.7 °F 83% 29.88 in 10.0 mi North 21.9 mph 25.3 mph 0.00 in Snow Light Snow
5:55 AM 18.3 °F 0.3 °F 14.2 °F 84% 29.90 in 10.0 mi North 25.3 mph 28.8 mph 0.00 in Snow Light Snow
6:13 AM 17.6 °F 1.7 °F 14.0 °F 86% 29.91 in 10.0 mi North 18.4 mph 25.3 mph N/A Snow Light Snow
6:14 AM 17.6 °F 2.2 °F 14.0 °F 86% 29.91 in 10.0 mi North 17.3 mph 25.3 mph N/A   Overcast
6:39 AM 17.6 °F 0.5 °F 14.0 °F 86% 29.92 in 10.0 mi North 21.9 mph 27.6 mph N/A Snow Light Snow
6:55 AM 17.4 °F 2.4 °F 13.3 °F 84% 29.93 in 10.0 mi North 16.1 mph - 0.00 in Snow Light Snow
7:01 AM 17.6 °F 2.7 °F 14.0 °F 86% 29.93 in 10.0 mi NNW 16.1 mph - N/A   Overcast
7:04 AM 17.6 °F 2.7 °F 14.0 °F 86% 29.93 in 10.0 mi North 16.1 mph 23.0 mph N/A   Overcast
7:07 AM 17.6 °F 1.7 °F 14.0 °F 86% 29.93 in 10.0 mi North 18.4 mph 23.0 mph N/A   Overcast
7:12 AM 17.6 °F 3.7 °F 12.2 °F 79% 29.93 in 10.0 mi North 13.8 mph 23.0 mph N/A Snow Light Snow
7:15 AM 17.6 °F 3.7 °F 12.2 °F 79% 29.93 in 10.0 mi NNW 13.8 mph - N/A Snow Light Snow
7:39 AM 15.8 °F 0.9 °F 12.2 °F 86% 29.94 in 10.0 mi North 15.0 mph - N/A   Overcast
7:50 AM 15.8 °F 1.4 °F 12.2 °F 86% 29.94 in 10.0 mi North 13.8 mph - N/A   Light Freezing Rain
7:55 AM 16.5 °F 2.4 °F 12.2 °F 83% 29.94 in 10.0 mi North 13.8 mph - 0.00 in   Light Freezing Rain
8:11 AM 17.6 °F 3.2 °F 12.2 °F 79% 29.95 in 10.0 mi NNW 15.0 mph 19.6 mph N/A   Light Freezing Rain
8:14 AM 17.6 °F 3.2 °F 12.2 °F 79% 29.95 in 10.0 mi NNW 15.0 mph - N/A   Light Freezing Rain
8:20 AM 17.6 °F 4.3 °F 10.4 °F 73% 29.95 in 10.0 mi North 12.7 mph - N/A   Overcast
8:22 AM 17.6 °F 3.2 °F 10.4 °F 73% 29.95 in 10.0 mi North 15.0 mph - N/A   Overcast
8:26 AM 15.8 °F 0.9 °F 10.4 °F 79% 29.92 in 10.0 mi North 15.0 mph - N/A   Overcast
8:55 AM 16.5 °F 1.3 °F 11.1 °F 79% 29.96 in 10.0 mi North 16.1 mph - 0.00 in Snow Light Snow
9:05 AM 15.8 °F -0.2 °F 10.4 °F 79% 29.96 in 10.0 mi North 17.3 mph - N/A Snow Light Snow
9:55 AM 16.3 °F 0.5 °F 10.6 °F 78% 29.98 in 10.0 mi North 17.3 mph - 0.00 in Snow Light Snow
9:56 AM 15.8 °F -0.6 °F 10.4 °F 79% 29.98 in 10.0 mi North 18.4 mph - N/A Snow Light Snow
10:00 AM 15.8 °F 0.9 °F 10.4 °F 79% 29.98 in 10.0 mi NNW 15.0 mph 21.9 mph N/A Snow Light Snow
10:03 AM 15.8 °F -0.2 °F 10.4 °F 79% 29.98 in 10.0 mi North 17.3 mph 21.9 mph N/A Snow Light Snow
10:05 AM 15.8 °F -0.2 °F 10.4 °F 79% 29.98 in 10.0 mi North 17.3 mph 21.9 mph N/A Snow Light Snow
10:30 AM 15.8 °F 0.9 °F 10.4 °F 79% 29.99 in 10.0 mi NNW 15.0 mph - N/A Snow Light Snow
10:37 AM 17.6 °F 3.7 °F 10.4 °F 73% 29.99 in 10.0 mi NNW 13.8 mph - N/A Snow Light Snow
10:55 AM 17.2 °F 3.3 °F 10.8 °F 76% 29.99 in 10.0 mi North 13.8 mph - 0.00 in Snow Light Snow
11:19 AM 17.6 °F 3.2 °F 10.4 °F 73% 29.99 in 10.0 mi North 15.0 mph - N/A   Light Freezing Rain
11:55 AM 19.0 °F 5.6 °F 11.7 °F 73% 30.00 in 10.0 mi North 13.8 mph - 0.00 in   Overcast
11:56 AM 19.4 °F 6.0 °F 12.2 °F 74% 30.00 in 10.0 mi North 13.8 mph - N/A   Overcast
12:09 PM 19.4 °F 6.6 °F 12.2 °F 74% 29.99 in 10.0 mi North 12.7 mph - N/A   Overcast
12:19 PM 19.4 °F 7.2 °F 12.2 °F 74% 29.99 in 10.0 mi North 11.5 mph - N/A   Overcast
12:55 PM 21.0 °F 9.3 °F 12.7 °F 70% 29.99 in 10.0 mi NNW 11.5 mph - 0.00 in   Light Freezing Rain
1:33 PM 21.2 °F 10.1 °F 14.0 °F 74% 29.99 in 10.0 mi NNW 10.4 mph - N/A   Overcast
1:55 PM 22.6 °F 11.9 °F 13.6 °F 68% 29.99 in 10.0 mi NNW 10.4 mph - N/A   Overcast
2:55 PM 23.5 °F 13.7 °F 13.5 °F 65% 29.99 in 10.0 mi NW 9.2 mph - N/A   Overcast
3:55 PM 23.2 °F 13.3 °F 14.7 °F 70% 29.98 in 10.0 mi WNW 9.2 mph - N/A   Overcast
4:55 PM 19.6 °F 11.7 °F 12.9 °F 75% 29.98 in 10.0 mi WNW 5.8 mph - N/A   Scattered Clouds
5:17 PM 21.2 °F 14.9 °F 14.0 °F 74% 29.98 in 10.0 mi WNW 4.6 mph - N/A   Overcast
5:27 PM 23.0 °F 13.1 °F 14.0 °F 68% 29.98 in 10.0 mi WNW 9.2 mph - N/A   Overcast
5:37 PM 21.2 °F 10.9 °F 14.0 °F 74% 29.98 in 10.0 mi WNW 9.2 mph - N/A   Scattered Clouds
5:55 PM 19.2 °F 9.3 °F 12.2 °F 74% 29.98 in 10.0 mi West 8.1 mph - 0.00 in   Partly Cloudy
6:17 PM 15.8 °F 4.2 °F 10.4 °F 79% 29.98 in 10.0 mi West 9.2 mph - N/A   Mostly Cloudy
6:55 PM 17.2 °F 7.8 °F 10.6 °F 75% 29.99 in 10.0 mi WNW 6.9 mph - N/A   Mostly Cloudy
7:18 PM 14.0 °F 6.5 °F 8.6 °F 79% 29.98 in 10.0 mi West 4.6 mph - N/A   Scattered Clouds
7:26 PM 12.2 °F 2.9 °F 6.8 °F 79% 29.98 in 10.0 mi West 5.8 mph - N/A   Mostly Cloudy
7:40 PM 10.4 °F -1.5 °F 6.8 °F 85% 29.98 in 10.0 mi WSW 8.1 mph - N/A   Scattered Clouds
7:50 PM 10.4 °F -0.4 °F 6.8 °F 85% 29.98 in 10.0 mi West 6.9 mph - N/A   Mostly Cloudy
7:55 PM 10.4 °F -0.4 °F 5.7 °F 81% 29.98 in 10.0 mi WSW 6.9 mph - N/A   Mostly Cloudy
8:55 PM 17.2 °F 6.0 °F 11.5 °F 78% 29.96 in 10.0 mi SW 9.2 mph - N/A   Overcast
9:55 PM 18.3 °F 8.2 °F 12.6 °F 78% 29.94 in 10.0 mi SW 8.1 mph - N/A   Overcast
10:10 PM 17.6 °F 6.4 °F 12.2 °F 79% 29.93 in 10.0 mi SW 9.2 mph - N/A   Scattered Clouds
10:50 PM 15.8 °F 4.2 °F 10.4 °F 79% 29.91 in 10.0 mi South 9.2 mph - N/A Snow Light Snow
10:55 PM 15.1 °F 2.5 °F 10.8 °F 83% 29.91 in 10.0 mi South 10.4 mph - 0.00 in Snow Light Snow
10:58 PM 15.8 °F 4.2 °F 12.2 °F 86% 29.90 in 10.0 mi South 9.2 mph - N/A   Mostly Cloudy
11:55 PM 19.8 °F 7.7 °F 14.4 °F 80% 29.88 in 10.0 mi South 11.5 mph - 0.00 in   Overcast